Northfield, Minnesota, United States (55057)
Lat: 44.46N, Lon: 93.16W
Wx Zone: MNZ077
Local Info
Past Weather Observations for Today

NOTE: This archive is for the closest National Weather Service station to Northfield. Information may differ from the station used for current weather conditions.

Click here for Long-term Archive

Time Weather Temperature Dewpoint Humidity Pressure Winds Precip Visibility
21:45
Clear
68°F / 20°C 64°F / 18°C 88% 29.98 in
(1015 mb)
Calm - 10SM
21:25
Clear
68°F / 20°C 64°F / 18°C 88% 29.98 in
(1015 mb)
Calm - 10SM
21:05
Clear
68°F / 20°C 63°F / 17°C 83% 29.98 in
(1015 mb)
Calm - 10SM
20:45
Clear
72°F / 22°C 63°F / 17°C 73% 29.98 in
(1015 mb)
SSW 3.5 mph
(SSW 6 kph)
- 10SM
20:25
Clear
72°F / 22°C 63°F / 17°C 73% 29.95 in
(1014 mb)
SSW 3.5 mph
(SSW 6 kph)
- 10SM
20:05
Clear
72°F / 22°C 64°F / 18°C 78% 29.95 in
(1014 mb)
SSW 4.6 mph
(SSW 7 kph)
- 10SM
19:45
Clear
73°F / 23°C 64°F / 18°C 74% 29.95 in
(1014 mb)
W 4.6 mph
(W 7 kph)
- 10SM
19:25
Clear
73°F / 23°C 64°F / 18°C 74% 29.95 in
(1014 mb)
NW 4.6 mph
(NW 7 kph)
- 10SM
19:05
Clear
75°F / 24°C 64°F / 18°C 69% 29.95 in
(1014 mb)
NW 8.1 mph
(NW 13 kph)
- 10SM
18:45
Clear
77°F / 25°C 64°F / 18°C 65% 29.95 in
(1014 mb)
NW 10.4 mph
(NW 17 kph)
- 10SM
18:25
Clear
77°F / 25°C 64°F / 18°C 65% 29.95 in
(1014 mb)
NW 9.2 mph
(NW 15 kph)
- 10SM
18:05
Clear
79°F / 26°C 64°F / 18°C 61% 29.95 in
(1014 mb)
NW 8.1 mph
(NW 13 kph)
- 10SM
17:45
Clear
79°F / 26°C 64°F / 18°C 61% 29.95 in
(1014 mb)
WNW 9.2 mph
(WNW 15 kph)
- 10SM
17:05
Clear
81°F / 27°C 64°F / 18°C 58% 29.95 in
(1014 mb)
WNW 9.2 mph
(WNW 15 kph)
- 10SM
16:45
Clear
79°F / 26°C 64°F / 18°C 61% 29.95 in
(1014 mb)
W 8.1 mph
(W 13 kph)
- 10SM
16:25
Clear
81°F / 27°C 63°F / 17°C 54% 29.95 in
(1014 mb)
WNW 11.5 mph
(WNW 19 kph)
- 10SM
16:05
Clear
81°F / 27°C 63°F / 17°C 54% 29.95 in
(1014 mb)
SSW 12.7 mph
(SSW 20 kph)
- 10SM
15:45
Clear
81°F / 27°C 63°F / 17°C 54% 29.95 in
(1014 mb)
W 16.1 mph
(W 26 kph)
- 10SM
15:25
Clear
82°F / 28°C 64°F / 18°C 55% 29.95 in
(1014 mb)
WNW 13.8 mph
(WNW 22 kph)
- 10SM
15:05
Clear
81°F / 27°C 64°F / 18°C 58% 29.95 in
(1014 mb)
W 12.7 mph
(W 20 kph)
- 10SM
14:45
Clear
81°F / 27°C 64°F / 18°C 58% 29.95 in
(1014 mb)
W 11.5 mph
(W 19 kph)
- 10SM
14:25
Clear
81°F / 27°C 64°F / 18°C 58% 29.92 in
(1013 mb)
WNW 11.5 mph
(WNW 19 kph)
- 10SM
14:05
Clear
81°F / 27°C 64°F / 18°C 58% 29.92 in
(1013 mb)
W 10.4 mph
(W 17 kph)
- 10SM
13:45
Clear
81°F / 27°C 64°F / 18°C 58% 29.89 in
(1012 mb)
W 9.2 mph
(W 15 kph)
- 10SM
13:25
Clear
81°F / 27°C 64°F / 18°C 58% 29.89 in
(1012 mb)
W 10.4 mph
(W 17 kph)
- 10SM
13:05
Clear
82°F / 28°C 64°F / 18°C 55% 29.89 in
(1012 mb)
WNW 12.7 mph
(WNW 20 kph)
- 10SM
12:45
Clear
82°F / 28°C 63°F / 17°C 51% 29.89 in
(1012 mb)
NW 10.4 mph
(NW 17 kph)
- 10SM
12:25
Clear
82°F / 28°C 63°F / 17°C 51% 29.89 in
(1012 mb)
W 10.4 mph
(W 17 kph)
- 10SM
12:05
Clear
82°F / 28°C 63°F / 17°C 51% 29.89 in
(1012 mb)
WNW 9.2 mph
(WNW 15 kph)
- 10SM
11:45
Clear
81°F / 27°C 63°F / 17°C 54% 29.89 in
(1012 mb)
W 12.7 mph
(W 20 kph)
- 10SM
11:25
Clear
81°F / 27°C 64°F / 18°C 58% 29.89 in
(1012 mb)
WNW 10.4 mph
(WNW 17 kph)
- 10SM
11:05
Clear
81°F / 27°C 63°F / 17°C 54% 29.89 in
(1012 mb)
NW 11.5 mph
(NW 19 kph)
- 10SM
10:45
Clear
81°F / 27°C 64°F / 18°C 58% 29.89 in
(1012 mb)
W 11.5 mph
(W 19 kph)
- 10SM
10:25
Clear
81°F / 27°C 63°F / 17°C 54% 29.89 in
(1012 mb)
W 13.8 mph
(W 22 kph)
- 10SM
10:05
Clear
81°F / 27°C 66°F / 19°C 62% 29.89 in
(1012 mb)
WNW 13.8 mph
(WNW 22 kph)
- 10SM
09:45
Clear
81°F / 27°C 66°F / 19°C 62% 29.89 in
(1012 mb)
W 15 mph
(W 24 kph)
- 10SM
09:25
Clear
81°F / 27°C 68°F / 20°C 66% 29.86 in
(1011 mb)
W 9.2 mph
(W 15 kph)
- 10SM
09:05
Clear
79°F / 26°C 66°F / 19°C 65% 29.86 in
(1011 mb)
WNW 9.2 mph
(WNW 15 kph)
- 10SM
08:45
Clear
79°F / 26°C 68°F / 20°C 70% 29.86 in
(1011 mb)
W 8.1 mph
(W 13 kph)
- 10SM
08:25
Clear
79°F / 26°C 70°F / 21°C 74% 29.86 in
(1011 mb)
NW 10.4 mph
(NW 17 kph)
- 10SM
08:05
Clear
79°F / 26°C 70°F / 21°C 74% 29.83 in
(1010 mb)
NW 9.2 mph
(NW 15 kph)
- 10SM
07:45
Clear
77°F / 25°C 70°F / 21°C 79% 29.83 in
(1010 mb)
NW 9.2 mph
(NW 15 kph)
- 10SM
07:25
Clear
77°F / 25°C 70°F / 21°C 79% 29.83 in
(1010 mb)
NW 10.4 mph
(NW 17 kph)
- 10SM
07:05
Clear
77°F / 25°C 70°F / 21°C 79% 29.83 in
(1010 mb)
NW 9.2 mph
(NW 15 kph)
- 10SM
06:45
Clear
75°F / 24°C 70°F / 21°C 83% 29.83 in
(1010 mb)
NW 10.4 mph
(NW 17 kph)
- 10SM
06:25
Partly Cloudy
75°F / 24°C 70°F / 21°C 83% 29.8 in
(1009 mb)
NW 10.4 mph
(NW 17 kph)
- 10SM
06:05
Mostly Cloudy
75°F / 24°C 68°F / 20°C 78% 29.8 in
(1009 mb)
NW 9.2 mph
(NW 15 kph)
- 10SM
05:45
Overcast
75°F / 24°C 70°F / 21°C 83% 29.8 in
(1009 mb)
NW 8.1 mph
(NW 13 kph)
- 10SM
05:25
Overcast
75°F / 24°C 70°F / 21°C 83% 29.8 in
(1009 mb)
WNW 5.8 mph
(WNW 9 kph)
- 10SM
05:05
Overcast
77°F / 25°C 72°F / 22°C 83% 29.8 in
(1009 mb)
NW 3.5 mph
(NW 6 kph)
- 10SM
04:45
Overcast
77°F / 25°C 73°F / 23°C 89% 29.77 in
(1008 mb)
NW 3.5 mph
(NW 6 kph)
- 10SM
04:12
Mostly Cloudy
77°F / 25°C 73°F / 23°C 89% 29.77 in
(1008 mb)
NW 10.4 mph
(NW 17 kph)
- 7SM
03:45
Partly Cloudy
77°F / 25°C 73°F / 23°C 89% 29.74 in
(1007 mb)
SW 4.6 mph
(SW 7 kph)
- 7SM
03:20
Overcast
77°F / 25°C 73°F / 23°C 89% 29.74 in
(1007 mb)
SW 5.8 mph
(SW 9 kph)
- 7SM
02:45
Overcast
75°F / 24°C 73°F / 23°C 94% 29.74 in
(1007 mb)
SSE 5.8 mph
(SSE 9 kph)
- 7SM
02:25
Overcast
75°F / 24°C 73°F / 23°C 94% 29.74 in
(1007 mb)
SSE 4.6 mph
(SSE 7 kph)
- 7SM
02:05
Overcast
75°F / 24°C 73°F / 23°C 94% 29.77 in
(1008 mb)
SW 3.5 mph
(SW 6 kph)
- 7SM
01:45
Overcast
75°F / 24°C 73°F / 23°C 94% 29.77 in
(1008 mb)
SW 3.5 mph
(SW 6 kph)
- 7SM
01:36
Overcast
75°F / 24°C 72°F / 22°C 89% 29.77 in
(1008 mb)
SSE 3.5 mph
(SSE 6 kph)
- 7SM
01:15
Overcast
75°F / 24°C 72°F / 22°C 89% 29.77 in
(1008 mb)
S 5.8 mph
(S 9 kph)
- 7SM
00:45
Overcast
75°F / 24°C 72°F / 22°C 89% 29.77 in
(1008 mb)
S 4.6 mph
(S 7 kph)
- 10SM
00:25
Overcast
75°F / 24°C 72°F / 22°C 89% 29.77 in
(1008 mb)
S 5.8 mph
(S 9 kph)
- 10SM
00:05
Overcast
75°F / 24°C 70°F / 21°C 83% 29.77 in
(1008 mb)
S 6.9 mph
(S 11 kph)
- 10SM
Time Weather Temperature Dewpoint Humidity Pressure Winds Precip Visibility


Weather for websites

WeatherForYou.com, LLC is not responsible for any damages or problems caused by this service. Current weather conditions are obtained from the closest station including government and personal stations which may have varying degrees of accuracy. Weather forecasts are derived from the NOAA NDFD. Like all things, this site belongs to Jesus Christ... He just trusts us to maintain it. If you have any questions or comments email webmaster@weatherforyou.com

Copyright © 2016, WeatherForYou.com LLC. All rights reserved.